Temp
-13 -13 -13 -13 -13 -13 -13 -13 -13 -14 -13 -14 -15 -15 -15 -15 -15 -16 -16 -17 -17 -16 -16 -16 -15 -15 -15 -16 -16 -16 -15 -15 -15 -17 -16 -16 -16 -16 -17 -17 -16 -17 -16 -15
-13 -13 -13 -13 -13 -13 -13 -13 -13 -13 -13 -14 -14 -14 -14 -14 -15 -14 -15 -16 -17 -16 -16 -16 -16 -16 -16 -16 -16 -16 -15 -16 -16 -16 -16 -17 -16 -16 -17 -17 -17 -17 -17 -15
-13 -13 -13 -14 -14 -13 -13 -13 -13 -13 -14 -13 -14 -15 -14 -14 -15 -14 -14 -15 -16 -16 -17 -17 -17 -17 -16 -17 -16 -16 -16 -16 -16 -16 -16 -17 -16 -17 -17 -17 -16 -16 -16 -16
-14 -14 -14 -14 -14 -14 -14 -14 -14 -13 -13 -13 -14 -14 -14 -14 -14 -14 -15 -14 -15 -15 -16 -16 -17 -17 -17 -17 -18 -18 -17 -16 -16 -16 -16 -16 -16 -17 -18 -18 -17 -17 -16 -16
-14 -14 -14 -14 -14 -14 -14 -14 -14 -14 -14 -14 -14 -14 -14 -14 -14 -14 -15 -15 -15 -15 -15 -15 -16 -17 -17 -17 -17 -17 -19 -18 -17 -17 -17 -17 -16 -16 -17 -17 -17 -17 -18 -18
-14 -15 -15 -14 -14 -15 -15 -15 -15 -15 -15 -15 -14 -14 -14 -15 -15 -15 -15 -15 -15 -15 -15 -15 -15 -15 -15 -16 -17 -18 -18 -19 -19 -18 -18 -17 -17 -16 -16 -17 -17 -17 -17 -16
-15 -15 -15 -15 -15 -15 -15 -15 -15 -15 -15 -15 -15 -15 -15 -15 -15 -15 -15 -15 -15 -15 -15 -15 -15 -15 -15 -15 -15 -17 -17 -18 -18 -18 -19 -18 -17 -17 -17 -17 -17 -17 -17 -17
-14 -15 -15 -16 -16 -16 -15 -16 -16 -16 -16 -16 -16 -16 -16 -16 -15 -15 -15 -15 -15 -15 -15 -16 -16 -16 -16 -16 -16 -16 -16 -17 -17 -18 -18 -18 -17 -18 -19 -19 -18 -18 -17 -17
-15 -15 -15 -16 -16 -16 -16 -16 -16 -16 -16 -17 -17 -16 -16 -16 -16 -15 -15 -15 -15 -16 -16 -16 -16 -16 -16 -16 -16 -17 -16 -17 -17 -17 -17 -17 -17 -19 -20 -19 -18 -18 -18 -18
-15 -15 -15 -15 -15 -15 -16 -16 -16 -16 -16 -17 -17 -17 -17 -16 -16 -16 -16 -16 -16 -16 -16 -16 -16 -16 -17 -17 -17 -17 -17 -17 -18 -18 -17 -17 -18 -19 -19 -19 -18 -19 -19 -19
-16 -16 -16 -16 -16 -16 -16 -16 -16 -16 -16 -16 -17 -17 -17 -17 -17 -17 -16 -16 -16 -16 -16 -16 -16 -16 -16 -17 -18 -18 -18 -18 -18 -18 -18 -17 -19 -19 -19 -19 -19 -19 -19 -19
-16 -16 -16 -16 -17 -16 -17 -17 -17 -16 -16 -16 -17 -17 -17 -17 -17 -17 -17 -17 -17 -17 -17 -16 -16 -16 -16 -17 -18 -18 -18 -18 -18 -18 -19 -19 -19 -19 -19 -19 -19 -19 -19 -20
-16 -16 -16 -17 -17 -17 -17 -17 -18 -18 -17 -17 -17 -18 -18 -18 -17 -17 -17 -18 -18 -17 -17 -17 -17 -17 -17 -18 -18 -19 -19 -19 -18 -18 -20 -19 -19 -19 -19 -18 -19 -19 -20 -20
-17 -17 -18 -18 -18 -19 -19 -18 -19 -19 -18 -18 -18 -19 -19 -19 -19 -18 -18 -19 -19 -19 -18 -18 -18 -18 -18 -18 -18 -19 -19 -19 -19 -18 -19 -18 -18 -18 -19 -19 -19 -19 -19 -19
-18 -18 -18 -19 -19 -20 -22 -20 -19 -19 -21 -20 -20 -20 -21 -21 -20 -20 -20 -20 -20 -20 -20 -19 -19 -19 -20 -19 -18 -19 -20 -20 -19 -19 -20 -19 -20 -19 -19 -20 -20 -20 -19 -20
-20 -20 -21 -21 -22 -23 -25 -24 -20 -19 -23 -24 -23 -22 -22 -22 -22 -22 -21 -21 -21 -20 -20 -20 -20 -20 -21 -19 -18 -20 -21 -20 -20 -19 -20 -20 -20 -20 -20 -20 -20 -20 -20 -19
-22 -23 -23 -23 -24 -24 -25 -25 -24 -24 -25 -25 -25 -24 -23 -23 -23 -23 -22 -22 -22 -22 -21 -22 -22 -22 -22 -20 -19 -22 -21 -20 -20 -20 -21 -21 -21 -21 -20 -20 -20 -20 -20 -20
-24 -24 -24 -24 -24 -25 -25 -25 -25 -25 -25 -25 -25 -25 -25 -24 -24 -24 -24 -24 -24 -23 -23 -23 -23 -23 -23 -21 -23 -23 -22 -22 -21 -21 -21 -21 -21 -21 -21 -21 -21 -21 -21 -21
-24 -24 -25 -25 -25 -25 -25 -26 -26 -26 -25 -25 -25 -26 -25 -25 -25 -25 -25 -25 -25 -25 -24 -25 -25 -24 -23 -24 -24 -23 -23 -22 -22 -22 -22 -22 -22 -22 -22 -22 -22 -22 -21 -21
-24 -25 -25 -25 -26 -26 -26 -26 -27 -27 -27 -26 -26 -26 -26 -26 -26 -26 -26 -25 -26 -26 -25 -26 -26 -25 -25 -26 -25 -24 -24 -23 -23 -23 -23 -23 -23 -23 -23 -22 -22 -22 -22 -22
-25 -25 -25 -25 -25 -26 -26 -27 -27 -27 -26 -26 -26 -27 -26 -26 -26 -26 -26 -26 -26 -26 -26 -27 -26 -26 -26 -26 -26 -25 -25 -24 -24 -24 -24 -24 -24 -24 -24 -23 -23 -23 -23 -23
-25 -25 -25 -26 -26 -26 -26 -26 -27 -27 -27 -27 -27 -27 -27 -27 -27 -27 -27 -27 -27 -27 -26 -27 -26 -26 -27 -27 -27 -26 -26 -26 -25 -25 -25 -25 -25 -25 -24 -24 -24 -24 -24 -24
-25 -25 -26 -26 -26 -26 -26 -26 -27 -28 -28 -28 -28 -28 -28 -28 -28 -27 -27 -28 -28 -27 -27 -27 -27 -27 -27 -27 -27 -27 -26 -26 -26 -26 -26 -26 -26 -25 -25 -25 -26 -25 -25 -25
-26 -26 -27 -27 -27 -27 -27 -27 -27 -28 -28 -28 -29 -29 -29 -28 -28 -28 -28 -28 -28 -28 -28 -27 -27 -27 -27 -27 -27 -27 -27 -26 -26 -26 -26 -26 -26 -26 -26 -26 -26 -26 -26 -26
-26 -27 -27 -27 -28 -28 -28 -28 -28 -28 -29 -29 -29 -29 -29 -29 -29 -29 -29 -29 -29 -28 -28 -28 -27 -27 -28 -27 -27 -27 -27 -27 -27 -27 -27 -27 -27 -27 -27 -27 -27 -27 -27 -27
-27 -27 -27 -28 -29 -29 -29 -29 -29 -29 -29 -29 -29 -29 -30 -30 -30 -30 -30 -29 -29 -29 -29 -28 -28 -28 -28 -28 -27 -27 -27 -27 -27 -27 -27 -27 -27 -27 -27 -27 -27 -27 -27 -28
-27 -27 -29 -29 -29 -30 -30 -30 -29 -29 -29 -29 -29 -29 -29 -29 -29 -29 -29 -30 -30 -30 -29 -29 -29 -29 -29 -28 -28 -27 -27 -28 -28 -28 -28 -28 -28 -28 -28 -28 -28 -28 -28 -28
Height
5705 5701 5698 5694 5691 5685 5681 5678 5674 5671 5668 5666 5662 5659 5656 5655 5651 5650 5649 5648 5647 5647 5647 5647 5646 5645 5644 5645 5646 5646 5645 5645 5644 5645 5646 5646 5647 5649 5651 5655 5659 5662 5666 5676
5697 5693 5688 5685 5681 5678 5674 5669 5666 5663 5659 5657 5655 5652 5650 5648 5646 5644 5642 5641 5641 5641 5641 5642 5642 5644 5643 5643 5643 5645 5645 5644 5644 5643 5644 5643 5644 5644 5645 5646 5650 5655 5661 5667
5685 5682 5679 5675 5671 5668 5665 5661 5657 5654 5651 5648 5646 5645 5643 5641 5639 5638 5636 5635 5634 5634 5634 5634 5635 5635 5637 5638 5638 5638 5638 5640 5640 5641 5641 5641 5640 5642 5643 5643 5645 5650 5654 5657
5674 5671 5667 5664 5661 5658 5655 5651 5649 5646 5644 5640 5639 5637 5636 5634 5631 5631 5630 5629 5628 5627 5626 5626 5627 5626 5626 5628 5629 5629 5630 5631 5632 5632 5633 5634 5634 5635 5636 5638 5643 5644 5648 5648
5663 5659 5654 5651 5650 5646 5644 5641 5639 5636 5634 5631 5629 5627 5626 5625 5624 5623 5621 5621 5621 5620 5620 5619 5619 5619 5619 5618 5619 5620 5621 5623 5623 5624 5624 5623 5624 5626 5627 5630 5631 5634 5638 5643
5655 5652 5647 5643 5639 5636 5633 5630 5629 5627 5626 5622 5620 5619 5617 5615 5614 5614 5613 5613 5612 5611 5612 5611 5611 5611 5610 5610 5610 5610 5611 5612 5613 5614 5616 5615 5613 5621 5622 5623 5625 5628 5626 5637
5645 5641 5638 5636 5632 5629 5627 5624 5621 5619 5617 5613 5611 5610 5609 5607 5605 5604 5603 5603 5602 5603 5601 5602 5602 5602 5602 5601 5600 5600 5601 5601 5603 5604 5606 5598 5609 5612 5612 5612 5616 5617 5621 5624
5635 5630 5627 5625 5622 5619 5616 5614 5613 5610 5608 5606 5603 5600 5598 5597 5595 5594 5592 5592 5591 5591 5591 5591 5590 5591 5591 5592 5591 5591 5590 5589 5589 5590 5592 5594 5596 5603 5604 5602 5606 5606 5607 5612
5623 5619 5616 5614 5611 5607 5605 5602 5601 5600 5599 5597 5595 5594 5591 5590 5588 5587 5584 5583 5582 5581 5581 5581 5581 5580 5580 5581 5580 5581 5580 5578 5578 5578 5577 5579 5588 5590 5589 5589 5590 5596 5597 5600
5611 5608 5604 5601 5600 5598 5595 5591 5589 5589 5587 5585 5584 5584 5584 5582 5579 5578 5577 5575 5574 5574 5572 5570 5570 5570 5568 5567 5568 5570 5568 5567 5566 5566 5563 5564 5575 5573 5573 5574 5587 5582 5582 5584
5600 5596 5592 5587 5585 5585 5582 5579 5576 5577 5576 5574 5572 5571 5571 5570 5569 5567 5568 5568 5566 5564 5563 5561 5560 5558 5558 5557 5557 5558 5557 5555 5556 5554 5552 5554 5562 5559 5560 5562 5563 5567 5569 5571
5585 5581 5577 5573 5570 5568 5568 5564 5560 5560 5562 5562 5558 5558 5558 5557 5557 5557 5556 5556 5555 5553 5551 5550 5549 5548 5548 5547 5546 5545 5545 5546 5545 5544 5545 5544 5544 5546 5547 5548 5549 5551 5553 5555
5565 5560 5556 5553 5549 5546 5548 5546 5543 5542 5544 5543 5542 5541 5542 5544 5544 5545 5545 5545 5542 5541 5540 5540 5539 5539 5539 5538 5537 5535 5535 5535 5535 5533 5538 5534 5532 5532 5535 5535 5535 5536 5539 5542
5541 5537 5533 5530 5527 5523 5522 5525 5524 5522 5523 5522 5527 5525 5527 5528 5528 5529 5530 5530 5528 5529 5529 5528 5528 5528 5529 5529 5528 5529 5528 5527 5526 5526 5527 5525 5527 5525 5525 5526 5526 5526 5527 5528
5512 5508 5507 5504 5502 5500 5494 5500 5503 5504 5500 5501 5507 5508 5510 5512 5513 5515 5515 5516 5515 5516 5515 5516 5517 5516 5516 5516 5517 5521 5518 5518 5516 5514 5515 5518 5518 5516 5516 5515 5515 5516 5516 5517
5481 5478 5477 5479 5479 5477 5475 5469 5481 5485 5483 5481 5485 5491 5493 5495 5498 5500 5501 5501 5503 5504 5503 5501 5500 5502 5500 5501 5504 5512 5507 5508 5506 5504 5503 5506 5508 5507 5507 5507 5507 5506 5506 5506
5455 5453 5453 5454 5456 5457 5457 5458 5462 5466 5465 5464 5464 5467 5477 5480 5482 5485 5485 5485 5487 5486 5485 5483 5483 5484 5483 5486 5491 5495 5493 5494 5494 5491 5491 5493 5491 5493 5495 5496 5496 5495 5495 5496
5438 5436 5435 5434 5435 5438 5440 5444 5448 5449 5451 5451 5448 5452 5463 5466 5468 5468 5469 5471 5470 5469 5467 5467 5467 5466 5467 5473 5478 5474 5475 5478 5479 5478 5477 5479 5479 5478 5479 5480 5482 5483 5483 5484
5427 5425 5422 5422 5422 5422 5425 5426 5428 5432 5435 5434 5435 5443 5449 5451 5454 5456 5455 5454 5453 5453 5454 5453 5452 5453 5454 5459 5456 5458 5459 5462 5464 5464 5463 5462 5464 5466 5466 5466 5467 5469 5470 5470
5415 5413 5412 5412 5411 5409 5410 5409 5412 5416 5417 5419 5420 5429 5434 5439 5441 5442 5444 5442 5440 5440 5442 5439 5440 5442 5443 5438 5439 5443 5445 5445 5446 5448 5449 5449 5448 5450 5451 5452 5453 5454 5455 5456
5403 5402 5401 5401 5401 5400 5398 5397 5399 5401 5402 5404 5409 5417 5421 5425 5427 5429 5429 5429 5429 5429 5431 5430 5431 5434 5428 5427 5427 5428 5429 5431 5432 5433 5433 5434 5434 5435 5436 5438 5439 5439 5440 5441
5393 5392 5391 5391 5391 5390 5390 5389 5389 5390 5391 5394 5399 5406 5409 5412 5415 5415 5415 5415 5417 5418 5421 5420 5422 5425 5421 5417 5418 5418 5419 5419 5419 5420 5421 5422 5423 5423 5424 5424 5425 5425 5425 5426
5383 5382 5382 5383 5383 5382 5383 5382 5382 5383 5385 5387 5390 5393 5397 5399 5402 5400 5401 5402 5403 5405 5407 5409 5415 5412 5411 5410 5409 5409 5409 5409 5410 5410 5410 5411 5411 5411 5412 5412 5412 5412 5412 5413
5376 5375 5375 5376 5376 5376 5376 5375 5374 5374 5374 5376 5378 5380 5382 5384 5386 5387 5389 5390 5392 5393 5397 5401 5401 5400 5400 5399 5399 5400 5400 5400 5400 5400 5400 5400 5400 5400 5400 5400 5400 5401 5400 5400
5369 5369 5369 5370 5370 5370 5369 5367 5366 5365 5365 5367 5368 5369 5371 5372 5373 5375 5377 5378 5380 5384 5387 5387 5388 5388 5388 5389 5389 5390 5390 5391 5391 5391 5391 5391 5391 5391 5391 5390 5390 5389 5389 5388
5365 5364 5364 5364 5364 5363 5361 5360 5360 5359 5358 5359 5360 5361 5362 5363 5364 5365 5367 5369 5372 5375 5374 5375 5375 5376 5376 5377 5379 5380 5380 5381 5381 5382 5382 5382 5381 5381 5380 5380 5379 5378 5378 5378
5360 5360 5358 5357 5356 5355 5354 5352 5352 5352 5353 5352 5352 5353 5353 5354 5355 5357 5358 5360 5361 5362 5364 5364 5364 5365 5365 5366 5368 5369 5370 5371 5371 5371 5371 5371 5370 5370 5369 5369 5368 5367 5366 5365
Wind_Speed
45 47 45 43 41 42 42 42 40 36 31 30 25 24 19 20 11 10 12 12 12 15 10 8 6 3 4 8 8 7 5 3 6 8 11 22 25 25 31 32 31 35 37 31
49 48 48 45 44 45 45 43 37 37 33 31 29 22 23 19 21 15 12 15 17 15 18 20 18 14 12 11 11 11 11 8 8 12 16 21 26 28 32 33 32 30 32 32
45 46 44 44 44 45 43 42 41 37 34 31 26 21 19 18 22 22 19 14 16 18 20 20 21 23 25 24 24 23 23 21 19 17 18 18 22 30 35 38 37 34 31 31
47 47 49 50 49 48 47 42 38 37 32 28 27 24 26 24 22 23 23 21 18 18 20 20 22 26 28 27 26 26 26 23 22 23 25 28 28 30 36 39 37 39 38 38
45 45 44 47 48 49 49 40 38 37 35 35 32 32 30 30 24 23 25 25 25 23 21 21 22 24 26 27 29 31 30 28 27 27 31 34 33 34 35 36 39 42 43 42
42 43 42 41 39 39 37 36 36 35 32 32 33 35 34 30 30 28 26 28 29 29 27 26 26 27 26 26 28 31 33 32 29 32 33 35 39 30 36 38 39 41 46 36
48 45 44 40 38 39 37 33 32 32 33 34 33 34 35 36 35 33 31 30 30 32 32 30 29 29 30 30 30 31 32 32 34 33 34 43 30 31 35 37 36 43 44 45
52 50 48 45 43 41 38 34 33 30 27 24 24 23 26 29 29 31 31 32 32 33 33 34 33 32 33 32 34 35 35 35 35 37 36 36 33 27 32 40 39 40 44 46
46 45 45 46 45 41 40 40 39 38 32 29 29 29 28 27 26 25 22 24 27 30 32 34 37 36 37 37 36 34 36 39 40 39 42 40 30 29 31 34 37 41 45 46
44 44 43 43 43 43 39 37 38 38 38 34 36 35 34 32 30 27 28 25 24 26 28 29 32 36 36 37 36 34 35 36 37 38 41 41 33 37 38 39 28 29 34 45
53 53 52 50 50 48 45 44 41 41 38 37 37 36 35 35 32 29 29 28 28 32 32 35 36 36 35 34 32 30 34 36 34 35 38 36 31 37 39 38 38 38 38 37
60 61 60 59 58 55 53 50 49 48 45 42 42 41 39 38 37 34 33 33 32 31 30 30 31 34 35 33 29 27 29 31 34 35 33 34 34 34 37 40 42 42 44 44
68 66 66 66 64 62 60 56 55 55 53 51 49 46 43 41 41 39 38 38 37 33 31 31 31 33 31 26 21 22 21 23 26 30 24 30 34 35 35 37 40 41 42 45
74 73 70 69 67 64 64 61 59 59 59 58 54 52 47 44 43 41 41 39 38 37 35 36 34 32 31 24 24 22 23 24 27 29 27 30 27 29 30 31 34 37 39 40
79 77 74 71 68 63 63 63 62 60 59 59 56 51 44 44 45 44 46 44 40 38 42 40 37 37 32 34 33 26 24 24 30 35 31 27 26 26 24 23 24 25 27 29
75 72 69 67 65 60 49 57 62 61 54 53 55 54 50 50 50 46 45 40 39 42 48 45 44 44 38 43 42 26 26 30 33 38 38 34 31 29 30 30 31 30 29 29
63 63 63 61 57 54 52 55 57 55 49 52 55 56 51 51 49 49 50 42 45 47 48 50 44 43 42 47 49 31 32 36 39 44 43 38 38 39 38 37 36 35 35 35
44 44 44 44 45 45 44 52 61 42 51 61 56 51 46 44 46 50 51 50 53 54 48 49 51 52 52 55 40 39 41 42 44 47 48 42 42 44 44 43 41 39 39 37
40 37 36 35 35 36 37 45 46 46 45 53 54 45 43 37 37 37 43 46 47 52 57 56 55 54 58 45 43 43 43 45 46 48 49 50 48 46 45 45 44 42 41 39
35 35 35 33 31 29 31 36 43 55 59 62 60 53 49 40 38 36 36 43 45 44 41 40 39 40 39 39 45 44 44 47 49 49 51 54 52 50 47 46 45 44 42 41
32 31 32 33 31 29 29 34 38 44 47 53 52 50 39 49 44 37 35 37 32 34 32 32 29 23 25 26 30 36 42 47 51 51 48 46 46 46 45 44 44 44 44 43
30 28 27 28 28 29 29 27 32 37 42 49 51 52 43 43 43 46 43 44 46 39 41 38 30 26 28 28 23 23 27 32 37 39 38 37 37 38 38 39 39 41 42 42
31 29 27 26 26 27 26 23 21 25 35 41 45 49 51 52 40 39 36 37 40 40 41 36 31 27 30 33 31 29 28 25 26 27 29 29 29 31 32 33 34 34 35 35
31 29 27 25 26 24 21 19 19 20 23 29 35 39 42 45 47 45 41 40 39 38 37 31 29 29 30 30 28 26 25 24 23 25 25 25 26 25 26 27 29 30 32 32
28 28 26 24 21 19 18 18 17 18 19 22 25 30 34 36 39 41 41 39 40 34 28 27 28 27 29 29 27 25 24 23 23 22 20 20 21 22 24 27 28 29 29 28
27 23 22 20 18 17 18 19 19 19 20 22 24 26 27 26 29 30 31 28 23 22 20 22 22 23 23 27 29 28 27 25 23 23 25 28 30 31 31 32 32 30 30 30
19 16 19 18 14 13 16 21 22 23 22 22 24 25 28 31 32 32 35 35 24 25 28 24 23 23 18 24 28 26 28 29 29 31 31 30 32 33 32 31 33 34 35 36
Wind_Direction
305 305 307 308 310 309 310 309 311 312 320 317 309 300 303 303 291 275 266 262 264 255 205 165 175 174 175 128 128 126 131 148 224 240 236 206 209 215 214 222 221 217 220 223
302 303 303 303 304 307 307 307 303 306 306 308 306 302 296 287 287 284 262 256 260 259 258 248 244 235 247 252 246 252 240 238 235 227 227 237 234 227 220 221 221 227 232 228
298 298 302 303 301 301 303 305 303 297 301 300 301 289 287 278 276 280 276 262 255 257 263 265 261 263 255 267 270 263 259 259 261 255 250 249 246 240 235 231 224 221 222 229
296 299 298 298 299 301 301 298 300 298 294 297 298 281 277 277 269 272 272 273 264 261 255 259 259 254 262 262 263 266 262 256 256 250 240 236 244 235 233 235 239 239 229 220
308 308 307 304 300 300 297 296 294 291 290 291 288 280 272 272 271 267 265 266 269 267 266 266 254 254 256 258 259 261 263 259 255 246 242 241 236 239 239 241 239 239 236 235
315 317 317 319 319 312 302 298 295 295 294 291 290 289 273 264 267 268 265 265 266 267 270 272 273 273 267 255 257 259 260 264 257 252 245 245 242 242 241 243 243 243 245 239
310 308 307 308 309 308 310 309 302 303 301 289 286 285 282 280 273 269 268 267 266 268 271 272 274 276 278 274 268 260 259 254 257 259 248 248 253 245 247 246 244 248 245 242
305 305 302 303 304 301 301 304 300 300 306 310 310 305 296 285 282 278 276 275 275 272 268 269 270 270 273 274 272 272 269 265 260 255 254 258 255 251 250 248 242 242 244 242
306 306 303 301 302 302 298 295 295 295 293 298 298 293 288 290 293 290 292 291 285 279 276 275 275 274 273 269 268 269 271 270 268 268 266 264 259 254 246 248 245 241 243 241
303 302 301 301 300 300 300 297 295 294 291 288 290 290 287 285 285 283 282 285 282 283 282 280 280 280 278 274 271 269 268 267 269 268 271 272 267 261 254 249 251 241 240 242
300 298 296 294 292 291 291 290 289 289 289 288 286 284 283 284 283 282 281 280 280 277 279 278 281 281 280 280 278 272 266 265 268 267 268 273 262 261 261 258 251 247 243 241
294 293 292 290 288 286 284 283 283 283 283 281 281 282 282 282 282 283 282 282 283 281 275 275 280 283 281 281 278 271 265 264 261 261 264 269 268 262 261 260 259 253 246 245
292 289 286 283 282 281 279 278 279 278 277 276 276 275 275 277 278 278 277 277 276 277 269 266 273 275 276 276 277 270 270 268 269 266 265 259 259 262 259 256 256 256 256 255
288 285 281 279 279 278 277 276 273 273 275 273 273 273 273 273 273 271 271 268 272 273 265 260 266 265 264 267 272 276 276 275 270 269 265 267 273 272 273 272 268 265 262 258
284 281 278 274 272 271 271 270 269 269 268 270 269 269 269 267 267 268 270 271 272 267 262 257 261 259 260 261 263 277 273 274 267 265 267 272 270 266 262 260 261 262 264 266
280 275 271 269 267 265 265 273 264 265 263 266 268 264 260 256 258 257 260 265 267 263 260 258 257 256 258 256 261 269 272 272 265 265 273 272 264 258 261 268 268 265 265 267
280 276 274 272 272 268 260 249 264 267 264 266 267 264 259 259 258 255 252 253 257 269 262 258 256 252 257 252 256 277 267 263 262 265 268 273 271 268 267 267 265 267 267 264
291 286 281 278 276 270 256 237 251 252 260 262 271 271 270 267 262 262 262 261 255 255 260 261 270 269 270 260 276 266 263 261 261 261 264 266 269 271 271 270 268 267 268 266
295 293 289 286 282 278 268 253 250 239 247 259 264 266 273 273 273 272 268 268 269 264 268 275 280 280 279 280 267 262 259 257 256 256 261 270 274 271 270 271 269 267 265 265
295 286 284 285 286 286 274 259 244 237 243 244 251 257 263 270 271 266 269 277 275 275 276 277 280 286 285 274 263 260 258 258 260 263 268 271 271 270 270 268 265 262 262 266
299 289 282 284 285 285 286 269 251 250 245 241 253 257 261 260 259 263 274 273 282 275 279 281 296 301 282 281 274 271 268 266 267 268 268 268 269 268 266 263 262 263 267 273
301 297 290 287 285 284 288 287 271 258 251 255 254 253 264 268 263 263 275 275 269 277 274 280 291 282 291 286 281 266 262 261 261 263 265 266 267 268 269 271 274 275 275 275
294 293 292 292 289 289 297 303 292 274 265 263 260 262 266 263 268 270 275 275 280 280 276 275 285 281 282 287 283 284 279 274 269 268 269 273 275 275 275 273 273 272 272 271
291 294 295 295 297 298 298 295 288 280 267 265 266 269 270 269 271 274 278 275 280 280 287 286 282 273 281 278 278 277 268 269 268 271 273 273 274 274 272 268 269 270 271 270
290 293 297 299 302 301 297 289 282 276 270 267 264 265 269 272 272 272 274 280 286 286 286 277 271 271 270 275 262 260 261 264 265 264 262 264 267 272 275 276 277 277 277 276
293 303 305 308 302 293 282 274 271 268 266 267 264 260 260 262 264 269 269 266 268 283 281 271 262 258 260 256 257 264 263 259 254 258 262 267 271 276 277 277 276 275 276 276
305 318 305 297 289 279 273 268 265 264 267 266 267 268 266 263 262 261 263 267 264 257 255 267 273 272 269 250 251 260 260 257 259 266 269 272 275 278 280 278 276 277 277 275